This demonstration page uses our WeatherBlox Daily Observations layout. Learn more.

Left ArrowRight Arrow

38.20091, -84.87328

Hourly Observations for February 13, 2018

Temp ( °F °C ) Dew Point ( °F °C ) Humidity (%) Winds ( mph kmh ) Pressure ( in mb ) Visibility ( mi km ) Precip ( " mm )
12:53 am 00:53 Clear 30 -1.1 21 -6.1 69 69 NE 9 15 30.62 1037 10 16 0.00 0.00
1:53 am 01:53 Clear 30 -1.1 21 -6.1 69 69 NE 9 15 30.61 1037 10 16 0.00 0.00
2:53 am 02:53 Clear 29 -1.7 20 -6.7 69 69 NE 6 9 30.60 1036 10 16 0.00 0.00
3:53 am 03:53 Clear 29 -1.7 20 -6.7 69 69 NNE 9 15 30.58 1036 10 16 0.00 0.00
4:53 am 04:53 Mostly Cloudy 29 -1.7 19 -7.2 66 66 ENE 9 15 30.58 1036 10 16 0.00 0.00
5:53 am 05:53 Clear 29 -1.7 19 -7.2 66 66 ENE 10 17 30.56 1035 10 16 0.00 0.00
6:53 am 06:53 Partly Cloudy 29 -1.7 19 -7.2 66 66 ENE 7 11 30.56 1035 10 16 0.00 0.00
7:02 am 07:02 Mostly Cloudy 30 -1.1 19 -7.2 64 64 ENE 7 11 30.56 1035 10 16 0.00 0.00
7:53 am 07:53 Cloudy 30 -1.1 20 -6.7 66 66 ENE 8 13 30.57 1035 10 16 0.00 0.00
8:38 am 08:38 Cloudy 31 -0.6 20 -6.7 64 64 ENE 6 9 30.59 1036 10 16 0.00 0.00
8:53 am 08:53 Cloudy 32 0 21 -6.1 64 64 ENE 5 7 30.58 1036 10 16 0.00 0.00
9:17 am 09:17 Cloudy 32 0 21 -6.1 64 64 ENE 5 7 30.59 1036 10 16 0.00 0.00
9:53 am 09:53 Cloudy 34 1.1 22 -5.6 61 61 E 7 11 30.57 1035 10 16 0.00 0.00
10:53 am 10:53 Cloudy 36 2.2 23 -5 59 59 E 6 9 30.57 1035 10 16 0.00 0.00
11:53 am 11:53 Cloudy 38 3.3 26 -3.3 62 62 VRB 3 6 30.55 1034 10 16 0.00 0.00
12:53 pm 12:53 Cloudy 43 6.1 30 -1.1 60 60 undefined N/A 30.53 1034 10 16 0.00 0.00
1:22 pm 13:22 Partly Cloudy 44 6.7 31 -0.6 60 60 Calm 30.50 1033 10 16 0.00 0.00
1:43 pm 13:43 Mostly Cloudy 44 6.7 32 0 63 63 SW 5 7 30.50 1033 10 16 0.00 0.00
1:53 pm 13:53 Mostly Cloudy 44 6.7 32 0 63 63 S 7 11 30.51 1033 10 16 0.00 0.00
2:53 pm 14:53 Cloudy 46 7.8 34 1.1 63 63 SSW 8 13 30.47 1032 10 16 0.00 0.00
3:53 pm 15:53 Cloudy 47 8.3 35 1.7 63 63 SW 7 11 30.45 1031 10 16 0.00 0.00
4:53 pm 16:53 Cloudy 47 8.3 37 2.8 69 69 SSW 9 15 30.43 1031 10 16 0.00 0.00
5:53 pm 17:53 Mostly Cloudy 46 7.8 37 2.8 71 71 SSW 7 11 30.42 1030 10 16 0.00 0.00
6:07 pm 18:07 Partly Cloudy 45 7.2 37 2.8 74 74 SW 8 13 30.42 1030 10 16 0.00 0.00
6:53 pm 18:53 Clear 39 3.9 34 1.1 82 82 Calm 30.43 1030 10 16 0.00 0.00
7:53 pm 19:53 Clear 39 3.9 33 0.6 79 79 Calm 30.42 1030 10 16 0.00 0.00
8:53 pm 20:53 Cloudy 39 3.9 34 1.1 82 82 Calm 30.42 1030 10 16 0.00 0.00
9:53 pm 21:53 Cloudy 40 4.4 35 1.7 83 83 Calm 30.41 1030 10 16 0.00 0.00
10:53 pm 22:53 Cloudy 42 5.6 36 2.2 79 79 Calm 30.40 1030 10 16 0.00 0.00
11:53 pm 23:53 Cloudy 42 5.6 37 2.8 82 82 SSE 3 6 30.39 1029 10 16 0.00 0.00

Powered by AerisWeather